Home > Weather > Calgary > Past weeks

Flag for Canada Weather for the Past 2 Weeks in Calgary, Alberta, Canada

Now
37 °F

Passing clouds.


Feels Like: 37 °F
Forecast: 34 / 47 °F
Wind: 2 mph from Southwest

Location: Calgary International

Current Time: Feb 13, 2016 at 11:04:46 PM

Latest Report: Feb 13, 2016 at 10:00 PM


Visibility: 15 mi

Pressure: 29.85 "Hg (26.17 "Hg at 1063m altitude)

Humidity: 48%

Dew point: 19 °F

Location of CalgaryLocation

Historic Weather in Calgary — Graph

°F

Calgary Temperature Yesterday

Maximum temperature yesterday: 30 °F (at 12:00 AM)
Minimum temperature yesterday: 25 °F (at 11:00 AM)
Average temperature yesterday: 27 °F

High & Low Weather Summary for the Past Weeks

 TemperatureHumidityPressure
High61 °F (Feb 9, 3:00 PM)100% (Feb 10, 6:00 PM)30.53 "Hg (Feb 10, 6:00 PM)
Low14 °F (Feb 2, 5:00 AM)17% (Feb 9, 3:00 PM)29.49 "Hg (Jan 30, 2:00 AM)
Average34 °F59%30.08 "Hg
* Reported Jan 29 10:00 PM — Feb 13 10:00 PM, Calgary, Weather by CustomWeather, © 2016

Note: Actual official high and low records may vary slightly from our data, if they occured in-between our weather recording intervals... More about our weather records

Advertising

Calgary Weather History for the Previous 24 Hours

 ConditionsComfort  
Time TempWeatherWind HumidityBarometerVisibility
10:00 PM
Sat, Feb 13
37 °FPassing clouds.2 mph48%29.85 "Hg15 mi
9:00 PM39 °FPassing clouds.5 mph42%29.88 "Hg15 mi
8:00 PM41 °FPassing clouds.8 mph36%29.90 "Hg15 mi
7:00 PM41 °FPassing clouds.12 mph36%29.89 "Hg15 mi
6:00 PM43 °FPassing clouds.7 mph34%29.89 "Hg20 mi
5:00 PM43 °FBroken clouds.7 mph36%29.90 "Hg30 mi
4:00 PM45 °FScattered clouds.6 mph57%29.90 "Hg30 mi
3:00 PM45 °FScattered clouds.14 mph57%29.92 "Hg30 mi
2:00 PM45 °FScattered clouds.13 mph57%29.96 "Hg30 mi
1:00 PM43 °FScattered clouds.5 mph61%29.97 "Hg30 mi
12:00 PM39 °FPartly sunny.6 mph70%29.99 "Hg30 mi
11:00 AM39 °FBroken clouds.6 mph65%29.98 "Hg30 mi
10:00 AM36 °FPartly sunny.8 mph75%29.98 "Hg30 mi
9:00 AM34 °FPartly sunny.12 mph81%29.97 "Hg30 mi
8:00 AM34 °FPartly sunny.10 mph70%29.95 "Hg20 mi
7:00 AM41 °FPassing clouds.20 mph42%29.87 "Hg15 mi
6:00 AM41 °FPartly cloudy.20 mph45%29.84 "Hg15 mi
5:00 AM41 °FPassing clouds.18 mph49%29.84 "Hg15 mi
4:00 AM41 °FPassing clouds.14 mph57%29.83 "Hg15 mi
3:00 AM37 °FPassing clouds.8 mph75%29.85 "Hg15 mi
2:00 AM28 °FPassing clouds.5 mph93%29.90 "Hg15 mi
1:00 AM25 °FPassing clouds.9 mph100%29.91 "Hg15 mi
12:00 AM27 °FLight fog.5 mph93%29.93 "Hg7 mi
11:49 PM
Fri, Feb 12
27 °FIce fog.8 mph93%29.93 "Hg3 mi
11:00 PM27 °FChilly.8 mph100%29.94 "Hg0 mi
Weather by CustomWeather, © 2016

See weather overviewHow to use our weather pages